Flag for Switzerland Weather past 2 weeks in Thônex, Geneva, Switzerland

Now
59 °F

Passing clouds.


Feels Like: 59 °F
Forecast: 56 / 89 °F
Wind: 1 mph from West

Location: Geneva Cointrin Airport

Current Time: Aug 2, 2015 at 3:02:51 AM

Latest Report: Aug 2, 2015 at 2:20 AM


Visibility: N/A

Pressure: 30.09 "Hg

Humidity: 94%

Dew point: 57 °F

Location of ThônexLocation

Historic Weather in Thônex — Graph

°F

Thônex temperature yesterday

Maximum temperature yesterday: 68 °F (at 3:50 PM)
Minimum temperature yesterday: 59 °F (at 4:50 AM)
Average temperature yesterday: 63 °F

Past Weeks' High & Low Weather Summary

 TemperatureHumidityPressure
High95 °F (Jul 21, 5:20 PM)100% (Jul 22, 8:50 PM)30.21 "Hg (Jul 22, 8:50 PM)
Low52 °F (Jul 30, 5:50 AM)26% (Jul 21, 7:20 PM)29.74 "Hg (Jul 24, 5:20 PM)
Average72 °F58%29.98 "Hg
* Reported Jul 18 2:20 AM — Aug 2 2:20 AM, Thônex, Weather by CustomWeather, © 2015

Note: Actual official high and low records may vary slightly from our data, if they occured in-between our weather recording intervals... More about our weather records

Advertising

Thônex weather history for previous 24 hours

 ConditionsComfort  
Time TempWeatherWind HumidityBarometerVisibility
2:20 AM
Sun, Aug 2
59 °FPassing clouds.1 mph94%30.09 "HgN/A
1:50 AM61 °FPassing clouds.1 mph94%30.09 "HgN/A
1:20 AM61 °FPassing clouds.1 mph94%30.09 "HgN/A
12:50 AM63 °FPassing clouds.1 mph88%30.09 "HgN/A
11:20 PM
Sat, Aug 1
63 °FPassing clouds.2 mph94%30.09 "HgN/A
10:20 PM63 °FPassing clouds.2 mph94%30.07 "HgN/A
9:50 PM63 °FBroken clouds.2 mph94%30.07 "HgN/A
9:20 PM64 °FPartly sunny.3 mph88%30.07 "HgN/A
8:50 PM64 °FPartly sunny.2 mph88%30.04 "HgN/A
8:20 PM64 °FPartly sunny.3 mph88%30.04 "HgN/A
7:50 PM66 °FPartly sunny.1 mph83%30.04 "HgN/A
7:20 PM66 °FPartly sunny.1 mph78%30.04 "HgN/A
6:50 PM66 °FBroken clouds.1 mph78%30.04 "HgN/A
6:20 PM66 °FSprinkles. Broken clouds.2 mph78%30.04 "HgN/A
5:50 PM66 °FBroken clouds.2 mph83%30.04 "HgN/A
5:20 PM66 °FSprinkles. Broken clouds.2 mph73%30.01 "HgN/A
4:50 PM66 °FBroken clouds.3 mph73%30.01 "HgN/A
4:20 PM66 °FBroken clouds.3 mph73%30.01 "HgN/A
3:50 PM68 °FBroken clouds.1 mph69%30.01 "HgN/A
3:20 PM66 °FBroken clouds.2 mph73%30.01 "HgN/A
2:50 PM66 °FBroken clouds.3 mph73%30.01 "HgN/A
2:20 PM64 °FBroken clouds.2 mph78%30.01 "HgN/A
1:50 PM64 °FSprinkles. Partly sunny.3 mph78%30.04 "HgN/A
1:20 PM64 °FBroken clouds.5 mph78%30.04 "HgN/A
12:50 PM64 °FBroken clouds.3 mph78%30.01 "HgN/A
12:20 PM64 °FBroken clouds.3 mph78%30.01 "HgN/A
11:50 AM64 °FBroken clouds.2 mph83%30.01 "HgN/A
11:20 AM63 °FBroken clouds.5 mph88%30.01 "HgN/A
10:50 AM61 °FBroken clouds.3 mph88%30.01 "HgN/A
10:20 AM61 °FSprinkles. Broken clouds.3 mph88%30.01 "HgN/A
9:50 AM61 °FSprinkles. Broken clouds.5 mph88%30.01 "HgN/A
9:20 AM61 °FSprinkles. Partly sunny.2 mph88%30.01 "HgN/A
8:50 AM61 °FPartly sunny.2 mph88%30.01 "Hg6 mi
8:20 AM59 °FLight rain. Fog.3 mph94%30.01 "Hg2 mi
7:50 AM59 °FLight rain. Mostly cloudy.2 mph94%30.01 "Hg5 mi
7:20 AM59 °FMostly cloudy.1 mph94%29.98 "HgN/A
6:50 AM59 °FLight rain. Mostly cloudy.2 mph94%29.98 "HgN/A
6:20 AM59 °FLight rain. Mostly cloudy.1 mph88%29.98 "HgN/A
5:50 AM59 °FLight rain. Passing clouds.3 mph94%29.98 "Hg6 mi
5:20 AM59 °FRain. Passing clouds.2 mph94%29.98 "Hg5 mi
4:50 AM59 °FRain. Passing clouds.3 mph88%29.98 "Hg5 mi
4:20 AM61 °FRain. Passing clouds.9 mph77%29.98 "Hg6 mi
3:50 AM61 °FLight rain. Overcast.7 mph83%29.95 "HgN/A
Weather by CustomWeather, © 2015

See weather overviewHow to use our weather pages